軌道要素
Epoch 2018 June 11.0 TT = JDT 2458280.5
T 2018 June 2.22202 TT MPCW
q 1.9565139 (2000.0) P Q
z -0.0009367 Peri. 134.13804 -0.57781293 +0.58838395
+/-0.0000007 Node 91.13907 -0.81109415 -0.49112579
e 1.0018327 Incl. 34.45377 +0.09087627 -0.64233931
From 1645 observations 2018 Jan. 28-Oct. 27, mean residual 0".3.
|